| time (UTC) | temp F | wind direction | speed MPH | gust MPH | rain 1hr in | rain 24hr in | rain mn in | humidity % | barometer mb |
| 20260831041037 | 57 | 221 | 2.0 | 8.0 | 0.00 | 0.00 | 0.00 | 90 | 1011.8 |
| 20260831040534 | 57 | 223 | 2.0 | 8.0 | 0.00 | 0.00 | 0.00 | 90 | 1011.8 |
| 20260831040054 | 57 | 211 | 3.0 | 8.0 | 0.00 | 0.00 | 0.00 | 90 | 1011.8 |
| 20260831035536 | 57 | 229 | 3.0 | 6.0 | 0.00 | 0.00 | 0.00 | 90 | 1011.7 |
| 20260831035036 | 57 | 225 | 2.0 | 6.0 | 0.00 | 0.00 | 0.00 | 90 | 1011.7 |
| 20260831034553 | 57 | 218 | 2.0 | 6.0 | 0.00 | 0.00 | 0.00 | 90 | 1011.7 |
| 20260831034037 | 57 | 222 | 2.0 | 6.0 | 0.00 | 0.00 | 0.00 | 91 | 1011.7 |
| 20260831033533 | 57 | 217 | 2.0 | 5.0 | 0.00 | 0.00 | 0.00 | 91 | 1011.7 |
| 20260831033052 | 57 | 229 | 2.0 | 6.0 | 0.00 | 0.00 | 0.00 | 91 | 1011.7 |
| 20260831032533 | 57 | 217 | 3.0 | 6.0 | 0.00 | 0.00 | 0.00 | 90 | 1011.6 |
| 20260831032033 | 57 | 223 | 3.0 | 5.0 | 0.00 | 0.00 | 0.00 | 90 | 1011.6 |
| 20260831031555 | 57 | 256 | 3.0 | 5.0 | 0.00 | 0.00 | 0.00 | 90 | 1011.6 |
| 20260831031032 | 57 | 186 | 3.0 | 6.0 | 0.00 | 0.00 | 0.00 | 90 | 1011.6 |
| 20260831030535 | 57 | 243 | 3.0 | 6.0 | 0.00 | 0.00 | 0.00 | 90 | 1011.6 |
| 20260831030055 | 57 | 221 | 3.0 | 6.0 | 0.00 | 0.00 | 0.00 | 90 | 1011.5 |
| 20260831025536 | 57 | 226 | 2.0 | 5.0 | 0.00 | 0.00 | 0.00 | 90 | 1011.6 |
| 20260831025033 | 57 | 234 | 3.0 | 6.0 | 0.00 | 0.00 | 0.00 | 90 | 1011.5 |
| 20260831024553 | 57 | 238 | 2.0 | 6.0 | 0.00 | 0.00 | 0.00 | 90 | 1011.5 |
| 20260831024035 | 57 | 230 | 3.0 | 7.0 | 0.00 | 0.00 | 0.00 | 90 | 1011.5 |
| 20260831023533 | 57 | 199 | 3.0 | 7.0 | 0.00 | 0.00 | 0.00 | 90 | 1011.5 |
| 20260831023049 | 56 | 212 | 3.0 | 7.0 | 0.00 | 0.00 | 0.00 | 90 | 1011.5 |
| 20260831022533 | 56 | 189 | 3.0 | 6.0 | 0.00 | 0.00 | 0.00 | 90 | 1011.6 |
| 20260831022033 | 56 | 212 | 3.0 | 6.0 | 0.00 | 0.00 | 0.00 | 90 | 1011.5 |
| 20260831021554 | 56 | 205 | 2.0 | 7.0 | 0.00 | 0.00 | 0.00 | 90 | 1011.6 |
| 20260831021036 | 56 | 237 | 3.0 | 7.0 | 0.00 | 0.00 | 0.00 | 90 | 1011.7 |
| 20260831020537 | 56 | 241 | 2.0 | 7.0 | 0.00 | 0.00 | 0.00 | 90 | 1011.7 |
| 20260831020056 | 56 | 203 | 4.0 | 7.0 | 0.00 | 0.00 | 0.00 | 90 | 1011.7 |
| 20260831015533 | 56 | 183 | 2.0 | 7.0 | 0.00 | 0.00 | 0.00 | 90 | 1011.7 |
| 20260831015035 | 56 | 224 | 3.0 | 7.0 | 0.00 | 0.00 | 0.00 | 90 | 1011.7 |
| 20260831014552 | 56 | 238 | 3.0 | 7.0 | 0.00 | 0.00 | 0.00 | 90 | 1011.7 |
| 20260831014033 | 56 | 203 | 3.0 | 8.0 | 0.00 | 0.00 | 0.00 | 90 | 1011.7 |
| 20260831013536 | 56 | 227 | 3.0 | 8.0 | 0.00 | 0.00 | 0.00 | 90 | 1011.8 |
| 20260831013101 | 56 | 208 | 3.0 | 7.0 | 0.00 | 0.00 | 0.00 | 90 | 1011.8 |
| 20260831012539 | 56 | 221 | 3.0 | 7.0 | 0.00 | 0.00 | 0.00 | 89 | 1011.9 |
| 20260831012036 | 57 | 202 | 3.0 | 7.0 | 0.00 | 0.00 | 0.00 | 89 | 1011.8 |
| 20260831011601 | 57 | 199 | 3.0 | 7.0 | 0.00 | 0.00 | 0.00 | 89 | 1011.9 |
| 20260831011035 | 57 | 228 | 3.0 | 7.0 | 0.00 | 0.00 | 0.00 | 89 | 1011.9 |
| 20260831010536 | 57 | 204 | 3.0 | 7.0 | 0.00 | 0.00 | 0.00 | 89 | 1011.9 |
| 20260831010056 | 57 | 207 | 4.0 | 7.0 | 0.00 | 0.00 | 0.00 | 89 | 1011.9 |
| 20260831005535 | 57 | 220 | 3.0 | 7.0 | 0.00 | 0.00 | 0.00 | 88 | 1011.9 |
| 20260831005035 | 58 | 212 | 3.0 | 7.0 | 0.00 | 0.00 | 0.00 | 88 | 1011.9 |
| 20260831004553 | 58 | 202 | 3.0 | 7.0 | 0.00 | 0.00 | 0.00 | 87 | 1011.9 |
| 20260831004038 | 58 | 244 | 4.0 | 8.0 | 0.00 | 0.00 | 0.00 | 87 | 1011.9 |
| 20260831003539 | 59 | 236 | 3.0 | 8.0 | 0.00 | 0.00 | 0.00 | 86 | 1011.9 |
| 20260831003106 | 59 | 221 | 4.0 | 8.0 | 0.00 | 0.00 | 0.00 | 86 | 1011.9 |
| 20260831002537 | 59 | 228 | 3.0 | 7.0 | 0.00 | 0.00 | 0.00 | 86 | 1012.0 |
| 20260831002041 | 59 | 194 | 3.0 | 6.0 | 0.00 | 0.00 | 0.00 | 86 | 1012.0 |
| 20260831001556 | 59 | 198 | 3.0 | 7.0 | 0.00 | 0.00 | 0.00 | 86 | 1012.0 |
| 20260831001037 | 59 | 237 | 3.0 | 7.0 | 0.00 | 0.00 | 0.00 | 87 | 1012.0 |
| 20260831000538 | 58 | 217 | 3.0 | 6.0 | 0.00 | 0.00 | 0.00 | 87 | 1012.1 |
| 20260831000055 | 58 | 229 | 4.0 | 6.0 | 0.00 | 0.00 | 0.00 | 87 | 1012.1 |
| 20260830235537 | 58 | 213 | 3.0 | 5.0 | 0.00 | 0.00 | 0.00 | 86 | 1012.1 |
| 20260830235041 | 59 | 234 | 3.0 | 5.0 | 0.00 | 0.00 | 0.00 | 86 | 1012.1 |
| 20260830234555 | 59 | 219 | 2.0 | 5.0 | 0.00 | 0.00 | 0.00 | 86 | 1012.1 |
| 20260830234038 | 59 | 265 | 2.0 | 6.0 | 0.00 | 0.00 | 0.00 | 87 | 1012.1 |
| 20260830233538 | 58 | 245 | 2.0 | 6.0 | 0.00 | 0.00 | 0.00 | 85 | 1012.2 |
| 20260830233100 | 59 | 223 | 3.0 | 6.0 | 0.00 | 0.00 | 0.00 | 85 | 1012.2 |
| 20260830232538 | 60 | 224 | 3.0 | 7.0 | 0.00 | 0.00 | 0.00 | 85 | 1012.2 |
| 20260830232038 | 59 | 224 | 3.0 | 7.0 | 0.00 | 0.00 | 0.00 | 84 | 1012.2 |
| 20260830231556 | 60 | 232 | 3.0 | 7.0 | 0.00 | 0.00 | 0.00 | 84 | 1012.3 |
| 20260830231037 | 60 | 227 | 3.0 | 6.0 | 0.00 | 0.00 | 0.00 | 83 | 1012.3 |
| 20260830230537 | 60 | 188 | 3.0 | 7.0 | 0.00 | 0.00 | 0.00 | 83 | 1012.3 |
| 20260830230053 | 60 | 207 | 3.0 | 7.0 | 0.00 | 0.00 | 0.00 | 83 | 1012.3 |
| 20260830225537 | 61 | 221 | 2.0 | 7.0 | 0.00 | 0.00 | 0.00 | 83 | 1012.3 |
| 20260830225038 | 61 | 271 | 2.0 | 7.0 | 0.00 | 0.00 | 0.00 | 82 | 1012.3 |
| 20260830224548 | 61 | 238 | 3.0 | 8.0 | 0.00 | 0.00 | 0.00 | 81 | 1012.3 |
| 20260830224037 | 62 | 232 | 4.0 | 8.0 | 0.00 | 0.00 | 0.00 | 79 | 1012.2 |
| 20260830223537 | 62 | 209 | 4.0 | 7.0 | 0.00 | 0.00 | 0.00 | 80 | 1012.3 |
| 20260830223109 | 61 | 215 | 4.0 | 8.0 | 0.00 | 0.00 | 0.00 | 81 | 1012.4 |
| 20260830222538 | 62 | 250 | 4.0 | 8.0 | 0.00 | 0.00 | 0.00 | 81 | 1012.4 |
| 20260830222037 | 62 | 186 | 4.0 | 8.0 | 0.00 | 0.00 | 0.00 | 79 | 1012.4 |
| 20260830221553 | 62 | 237 | 3.0 | 5.0 | 0.00 | 0.00 | 0.00 | 80 | 1012.5 |
| 20260830221037 | 62 | 231 | 3.0 | 7.0 | 0.00 | 0.00 | 0.00 | 80 | 1012.5 |
| 20260830220538 | 62 | 251 | 4.0 | 8.0 | 0.00 | 0.00 | 0.00 | 80 | 1012.6 |
| 20260830220053 | 62 | 210 | 4.0 | 8.0 | 0.00 | 0.00 | 0.00 | 80 | 1012.9 |
| 20260830215538 | 63 | 234 | 3.0 | 7.0 | 0.00 | 0.00 | 0.00 | 80 | 1012.9 |
| 20260830215038 | 62 | 228 | 4.0 | 7.0 | 0.00 | 0.00 | 0.00 | 81 | 1013.0 |
| 20260830214615 | 62 | 205 | 3.0 | 8.0 | 0.00 | 0.00 | 0.00 | 80 | 1013.1 |
| 20260830214037 | 62 | 215 | 4.0 | 9.0 | 0.00 | 0.00 | 0.00 | 82 | 1013.1 |
| 20260830213537 | 62 | 220 | 4.0 | 10.0 | 0.00 | 0.00 | 0.00 | 82 | 1013.1 |
| 20260830213059 | 61 | 213 | 5.0 | 10.0 | 0.00 | 0.00 | 0.00 | 81 | 1013.2 |
| 20260830212538 | 62 | 223 | 4.0 | 8.0 | 0.00 | 0.00 | 0.00 | 81 | 1013.2 |
| 20260830212038 | 61 | 202 | 4.0 | 8.0 | 0.00 | 0.00 | 0.00 | 81 | 1013.3 |
| 20260830211554 | 62 | 207 | 4.0 | 9.0 | 0.00 | 0.00 | 0.00 | 81 | 1013.3 |
| 20260830211038 | 62 | 240 | 4.0 | 9.0 | 0.00 | 0.00 | 0.00 | 81 | 1013.2 |
| 20260830210538 | 61 | 254 | 4.0 | 8.0 | 0.00 | 0.00 | 0.00 | 81 | 1013.2 |
| 20260830210109 | 62 | 232 | 4.0 | 8.0 | 0.00 | 0.00 | 0.00 | 80 | 1013.2 |
| 20260830205537 | 61 | 217 | 5.0 | 7.0 | 0.00 | 0.00 | 0.00 | 82 | 1013.2 |
| 20260830205037 | 61 | 223 | 4.0 | 9.0 | 0.00 | 0.00 | 0.00 | 82 | 1013.3 |
| 20260830204600 | 61 | 209 | 4.0 | 9.0 | 0.00 | 0.00 | 0.00 | 82 | 1013.4 |
| 20260830204037 | 61 | 193 | 4.0 | 9.0 | 0.00 | 0.00 | 0.00 | 82 | 1013.4 |
| 20260830203537 | 61 | 230 | 4.0 | 8.0 | 0.00 | 0.00 | 0.00 | 82 | 1013.4 |
| 20260830203103 | 61 | 215 | 4.0 | 7.0 | 0.00 | 0.00 | 0.00 | 83 | 1013.4 |
| 20260830202537 | 60 | 232 | 4.0 | 7.0 | 0.00 | 0.00 | 0.00 | 83 | 1013.4 |
| 20260830202037 | 60 | 229 | 3.0 | 7.0 | 0.00 | 0.00 | 0.00 | 84 | 1013.4 |
| 20260830201557 | 60 | 238 | 4.0 | 7.0 | 0.00 | 0.00 | 0.00 | 83 | 1013.3 |
| 20260830201037 | 60 | 210 | 4.0 | 7.0 | 0.00 | 0.00 | 0.00 | 85 | 1013.4 |
| 20260830200537 | 60 | 210 | 4.0 | 8.0 | 0.00 | 0.00 | 0.00 | 84 | 1013.5 |
| 20260830200053 | 60 | 233 | 4.0 | 8.0 | 0.00 | 0.00 | 0.00 | 85 | 1013.6 |
| 20260830195537 | 60 | 223 | 3.0 | 8.0 | 0.00 | 0.00 | 0.00 | 85 | 1013.6 |
| 20260830195040 | 60 | 235 | 4.0 | 8.0 | 0.00 | 0.00 | 0.00 | 85 | 1013.6 |
| 20260830194552 | 59 | 207 | 4.0 | 8.0 | 0.00 | 0.00 | 0.00 | 85 | 1013.7 |
| 20260830194037 | 59 | 225 | 4.0 | 8.0 | 0.00 | 0.00 | 0.00 | 86 | 1013.7 |
| 20260830193540 | 59 | 195 | 4.0 | 7.0 | 0.00 | 0.00 | 0.00 | 86 | 1013.7 |
| 20260830193059 | 59 | 229 | 4.0 | 8.0 | 0.00 | 0.00 | 0.00 | 86 | 1013.8 |
| 20260830192537 | 59 | 211 | 4.0 | 8.0 | 0.00 | 0.00 | 0.00 | 87 | 1013.8 |
| 20260830192038 | 58 | 223 | 3.0 | 8.0 | 0.00 | 0.00 | 0.00 | 87 | 1013.8 |
| 20260830191555 | 58 | 246 | 3.0 | 8.0 | 0.00 | 0.00 | 0.00 | 88 | 1013.7 |
| 20260830191037 | 58 | 229 | 4.0 | 7.0 | 0.00 | 0.00 | 0.00 | 88 | 1013.6 |
| 20260830190539 | 58 | 219 | 3.0 | 6.0 | 0.00 | 0.00 | 0.00 | 89 | 1013.6 |
| 20260830190124 | 58 | 234 | 3.0 | 6.0 | 0.00 | 0.00 | 0.00 | 89 | 1013.6 |
| 20260830185537 | 58 | 228 | 4.0 | 6.0 | 0.00 | 0.00 | 0.00 | 89 | 1013.6 |
| 20260830185036 | 58 | 220 | 3.0 | 6.0 | 0.00 | 0.00 | 0.00 | 89 | 1013.7 |
| 20260830184554 | 58 | 238 | 3.0 | 6.0 | 0.00 | 0.00 | 0.00 | 89 | 1013.8 |
| 20260830184036 | 58 | 221 | 3.0 | 6.0 | 0.00 | 0.00 | 0.00 | 89 | 1013.8 |
| 20260830183537 | 58 | 208 | 3.0 | 6.0 | 0.00 | 0.00 | 0.00 | 89 | 1013.8 |
| 20260830183103 | 57 | 244 | 3.0 | 7.0 | 0.00 | 0.00 | 0.00 | 89 | 1013.8 |
| 20260830182537 | 57 | 223 | 3.0 | 7.0 | 0.00 | 0.00 | 0.00 | 89 | 1013.8 |
| 20260830182038 | 57 | 237 | 3.0 | 6.0 | 0.00 | 0.00 | 0.00 | 89 | 1013.7 |
| 20260830181555 | 57 | 233 | 3.0 | 7.0 | 0.00 | 0.00 | 0.00 | 89 | 1013.7 |
| 20260830181037 | 57 | 205 | 4.0 | 7.0 | 0.00 | 0.00 | 0.00 | 89 | 1013.7 |
| 20260830180537 | 57 | 229 | 3.0 | 7.0 | 0.00 | 0.00 | 0.00 | 90 | 1013.7 |
| 20260830180057 | 57 | 256 | 4.0 | 7.0 | 0.00 | 0.00 | 0.00 | 90 | 1013.7 |
| 20260830175537 | 57 | 244 | 3.0 | 7.0 | 0.00 | 0.00 | 0.00 | 90 | 1013.7 |
| 20260830175037 | 57 | 190 | 3.0 | 7.0 | 0.00 | 0.00 | 0.00 | 90 | 1013.7 |
| 20260830174606 | 57 | 236 | 3.0 | 7.0 | 0.00 | 0.00 | 0.00 | 90 | 1013.7 |
| 20260830174038 | 57 | 234 | 3.0 | 6.0 | 0.00 | 0.00 | 0.00 | 90 | 1013.8 |
| 20260830173537 | 57 | 228 | 3.0 | 6.0 | 0.00 | 0.00 | 0.00 | 90 | 1013.8 |
| 20260830173054 | 57 | 208 | 3.0 | 7.0 | 0.00 | 0.00 | 0.00 | 90 | 1013.7 |
| 20260830172537 | 56 | 227 | 3.0 | 7.0 | 0.00 | 0.00 | 0.00 | 90 | 1013.7 |
| 20260830172037 | 57 | 232 | 3.0 | 6.0 | 0.00 | 0.00 | 0.00 | 90 | 1013.7 |
| 20260830171557 | 57 | 234 | 3.0 | 5.0 | 0.00 | 0.00 | 0.00 | 91 | 1013.6 |
| 20260830171038 | 56 | 223 | 2.0 | 7.0 | 0.00 | 0.00 | 0.00 | 91 | 1013.6 |
| 20260830170538 | 56 | 225 | 3.0 | 7.0 | 0.00 | 0.00 | 0.00 | 91 | 1013.5 |
| 20260830170056 | 56 | 256 | 3.0 | 7.0 | 0.00 | 0.00 | 0.00 | 91 | 1013.5 |
| 20260830165539 | 56 | 235 | 3.0 | 7.0 | 0.00 | 0.00 | 0.00 | 91 | 1013.6 |
| 20260830165037 | 56 | 217 | 4.0 | 7.0 | 0.00 | 0.00 | 0.00 | 91 | 1013.6 |
| 20260830164601 | 56 | 232 | 4.0 | 6.0 | 0.00 | 0.00 | 0.00 | 91 | 1013.6 |
| 20260830164038 | 56 | 205 | 3.0 | 6.0 | 0.00 | 0.00 | 0.00 | 91 | 1013.5 |
| 20260830163538 | 56 | 289 | 4.0 | 7.0 | 0.00 | 0.00 | 0.00 | 91 | 1013.5 |
| 20260830163056 | 56 | 215 | 3.0 | 7.0 | 0.00 | 0.00 | 0.00 | 91 | 1013.4 |
| 20260830162540 | 56 | 192 | 3.0 | 8.0 | 0.00 | 0.00 | 0.00 | 91 | 1013.4 |
| 20260830162037 | 56 | 235 | 3.0 | 8.0 | 0.00 | 0.00 | 0.00 | 91 | 1013.4 |
| 20260830161553 | 56 | 223 | 4.0 | 8.0 | 0.00 | 0.00 | 0.00 | 91 | 1013.5 |
| 20260830161038 | 56 | 216 | 3.0 | 8.0 | 0.00 | 0.00 | 0.00 | 91 | 1013.3 |
| 20260830160537 | 56 | 207 | 4.0 | 8.0 | 0.00 | 0.00 | 0.00 | 91 | 1013.4 |
| 20260830160052 | 56 | 221 | 4.0 | 8.0 | 0.00 | 0.00 | 0.00 | 91 | 1013.4 |
| 20260830155540 | 56 | 223 | 3.0 | 8.0 | 0.00 | 0.00 | 0.00 | 91 | 1013.4 |
| 20260830155037 | 56 | 201 | 4.0 | 8.0 | 0.00 | 0.00 | 0.00 | 91 | 1013.4 |
| 20260830154545 | 56 | 219 | 3.0 | 7.0 | 0.00 | 0.00 | 0.00 | 91 | 1013.4 |
| 20260830154040 | 56 | 205 | 4.0 | 7.0 | 0.00 | 0.00 | 0.00 | 91 | 1013.4 |
| 20260830153538 | 56 | 225 | 3.0 | 10.0 | 0.00 | 0.00 | 0.00 | 91 | 1013.4 |
| 20260830153056 | 56 | 221 | 4.0 | 10.0 | 0.00 | 0.00 | 0.00 | 91 | 1013.4 |
| 20260830152537 | 56 | 236 | 4.0 | 10.0 | 0.00 | 0.00 | 0.00 | 91 | 1013.3 |
| 20260830152038 | 56 | 227 | 3.0 | 7.0 | 0.00 | 0.00 | 0.00 | 91 | 1013.3 |
| 20260830151554 | 56 | 197 | 3.0 | 7.0 | 0.00 | 0.00 | 0.00 | 91 | 1013.3 |
| 20260830151037 | 56 | 234 | 2.0 | 6.0 | 0.00 | 0.00 | 0.00 | 91 | 1013.3 |
| 20260830150539 | 56 | 234 | 2.0 | 5.0 | 0.00 | 0.00 | 0.00 | 91 | 1013.3 |
| 20260830150059 | 56 | 234 | 3.0 | 5.0 | 0.00 | 0.00 | 0.00 | 91 | 1013.3 |
| 20260830145537 | 56 | 242 | 2.0 | 6.0 | 0.00 | 0.00 | 0.00 | 91 | 1013.3 |
| 20260830145037 | 56 | 205 | 3.0 | 6.0 | 0.00 | 0.00 | 0.00 | 91 | 1013.3 |
| 20260830144550 | 56 | 205 | 3.0 | 6.0 | 0.00 | 0.00 | 0.00 | 91 | 1013.2 |
| 20260830144037 | 56 | 260 | 3.0 | 6.0 | 0.00 | 0.00 | 0.00 | 91 | 1013.3 |
| 20260830143539 | 56 | 237 | 3.0 | 6.0 | 0.00 | 0.00 | 0.00 | 91 | 1013.2 |
| 20260830143105 | 56 | 216 | 3.0 | 6.0 | 0.00 | 0.00 | 0.00 | 91 | 1013.2 |
| 20260830142541 | 56 | 214 | 3.0 | 6.0 | 0.00 | 0.00 | 0.00 | 91 | 1013.1 |
| 20260830142036 | 56 | 250 | 3.0 | 5.0 | 0.00 | 0.00 | 0.00 | 91 | 1013.1 |
| 20260830141556 | 56 | 222 | 3.0 | 5.0 | 0.00 | 0.00 | 0.00 | 91 | 1013.0 |
| 20260830141037 | 56 | 223 | 2.0 | 5.0 | 0.00 | 0.00 | 0.00 | 91 | 1013.0 |
| 20260830140537 | 56 | 228 | 2.0 | 6.0 | 0.00 | 0.00 | 0.00 | 91 | 1013.0 |
| 20260830140053 | 56 | 248 | 3.0 | 6.0 | 0.00 | 0.00 | 0.00 | 91 | 1013.0 |
| 20260830135537 | 56 | 236 | 2.0 | 8.0 | 0.00 | 0.00 | 0.00 | 91 | 1012.9 |
| 20260830135038 | 56 | 224 | 2.0 | 8.0 | 0.00 | 0.00 | 0.00 | 91 | 1012.9 |
| 20260830134601 | 56 | 243 | 2.0 | 5.0 | 0.00 | 0.00 | 0.00 | 91 | 1012.7 |
| 20260830134038 | 56 | 252 | 2.0 | 5.0 | 0.00 | 0.00 | 0.00 | 91 | 1012.7 |
| 20260830133537 | 56 | 205 | 3.0 | 5.0 | 0.00 | 0.00 | 0.00 | 92 | 1012.7 |
| 20260830133055 | 56 | 250 | 2.0 | 6.0 | 0.00 | 0.00 | 0.00 | 91 | 1012.6 |
| 20260830132536 | 56 | 228 | 2.0 | 6.0 | 0.00 | 0.00 | 0.00 | 92 | 1012.6 |
| 20260830132036 | 56 | 238 | 3.0 | 6.0 | 0.00 | 0.00 | 0.00 | 91 | 1012.5 |
| 20260830131554 | 56 | 230 | 3.0 | 6.0 | 0.00 | 0.00 | 0.00 | 91 | 1012.5 |
| 20260830131037 | 56 | 237 | 2.0 | 5.0 | 0.00 | 0.00 | 0.00 | 92 | 1012.4 |
| 20260830130538 | 56 | 246 | 3.0 | 5.0 | 0.00 | 0.00 | 0.00 | 91 | 1012.5 |
| 20260830130053 | 56 | 211 | 3.0 | 4.0 | 0.00 | 0.00 | 0.00 | 91 | 1012.5 |
| 20260830125537 | 56 | 223 | 2.0 | 5.0 | 0.00 | 0.00 | 0.00 | 91 | 1012.4 |
| 20260830125037 | 56 | 237 | 3.0 | 5.0 | 0.00 | 0.00 | 0.00 | 91 | 1012.4 |
| 20260830124549 | 56 | 236 | 3.0 | 5.0 | 0.00 | 0.00 | 0.00 | 92 | 1012.4 |
| 20260830124040 | 56 | 236 | 3.0 | 5.0 | 0.00 | 0.00 | 0.00 | 91 | 1012.3 |
| 20260830123537 | 56 | 234 | 2.0 | 5.0 | 0.00 | 0.00 | 0.00 | 92 | 1012.3 |
| 20260830123056 | 56 | 242 | 2.0 | 5.0 | 0.00 | 0.00 | 0.00 | 92 | 1012.3 |
| 20260830122538 | 56 | 232 | 2.0 | 5.0 | 0.00 | 0.00 | 0.00 | 91 | 1012.3 |
| 20260830122037 | 56 | 227 | 2.0 | 6.0 | 0.00 | 0.00 | 0.00 | 92 | 1012.3 |
| 20260830121554 | 56 | 231 | 2.0 | 6.0 | 0.00 | 0.00 | 0.00 | 92 | 1012.3 |
| 20260830121036 | 56 | 261 | 2.0 | 6.0 | 0.00 | 0.00 | 0.00 | 92 | 1012.3 |
| 20260830120540 | 56 | 236 | 2.0 | 6.0 | 0.00 | 0.00 | 0.00 | 92 | 1012.4 |
| 20260830120056 | 56 | 233 | 3.0 | 7.0 | 0.00 | 0.00 | 0.00 | 92 | 1012.3 |
| 20260830115537 | 56 | 246 | 2.0 | 7.0 | 0.00 | 0.00 | 0.00 | 92 | 1012.3 |
| 20260830115039 | 56 | 229 | 2.0 | 6.0 | 0.00 | 0.00 | 0.00 | 92 | 1012.3 |
| 20260830114548 | 56 | 236 | 2.0 | 5.0 | 0.00 | 0.00 | 0.00 | 92 | 1012.3 |
| 20260830114037 | 56 | 238 | 2.0 | 6.0 | 0.00 | 0.00 | 0.00 | 92 | 1012.4 |
| 20260830113536 | 56 | 235 | 3.0 | 6.0 | 0.00 | 0.00 | 0.00 | 91 | 1012.3 |
| 20260830113105 | 56 | 254 | 3.0 | 7.0 | 0.00 | 0.00 | 0.00 | 91 | 1012.3 |
| 20260830112536 | 56 | 232 | 3.0 | 7.0 | 0.00 | 0.00 | 0.00 | 91 | 1012.3 |
| 20260830112037 | 56 | 250 | 2.0 | 5.0 | 0.00 | 0.00 | 0.00 | 91 | 1012.3 |
| 20260830111555 | 56 | 242 | 3.0 | 5.0 | 0.00 | 0.00 | 0.00 | 91 | 1012.2 |
| 20260830111039 | 56 | 229 | 2.0 | 5.0 | 0.00 | 0.00 | 0.00 | 91 | 1012.3 |
| 20260830110537 | 56 | 230 | 3.0 | 5.0 | 0.00 | 0.00 | 0.00 | 91 | 1012.3 |
| 20260830110052 | 56 | 237 | 2.0 | 5.0 | 0.00 | 0.00 | 0.00 | 92 | 1012.4 |
| 20260830105541 | 56 | 227 | 2.0 | 5.0 | 0.00 | 0.00 | 0.00 | 91 | 1012.4 |
| 20260830105037 | 56 | 223 | 3.0 | 6.0 | 0.00 | 0.00 | 0.00 | 91 | 1012.4 |
| 20260830104603 | 56 | 242 | 2.0 | 6.0 | 0.00 | 0.00 | 0.00 | 92 | 1012.4 |
| 20260830104038 | 56 | 220 | 2.0 | 5.0 | 0.00 | 0.00 | 0.00 | 92 | 1012.4 |
| 20260830103537 | 56 | 231 | 2.0 | 5.0 | 0.00 | 0.00 | 0.00 | 91 | 1012.4 |
| 20260830103057 | 56 | 218 | 2.0 | 5.0 | 0.00 | 0.00 | 0.00 | 91 | 1012.4 |
| 20260830102536 | 56 | 240 | 2.0 | 4.0 | 0.00 | 0.00 | 0.00 | 91 | 1012.3 |
| 20260830102039 | 56 | 273 | 2.0 | 4.0 | 0.00 | 0.00 | 0.00 | 91 | 1012.4 |
| 20260830101555 | 56 | 243 | 2.0 | 4.0 | 0.00 | 0.00 | 0.00 | 91 | 1012.4 |
| 20260830101034 | 56 | 235 | 2.0 | 5.0 | 0.00 | 0.00 | 0.00 | 91 | 1012.4 |
| 20260830100535 | 56 | 234 | 2.0 | 5.0 | 0.00 | 0.00 | 0.00 | 91 | 1012.4 |
| 20260830100054 | 56 | 229 | 2.0 | 5.0 | 0.00 | 0.00 | 0.00 | 91 | 1012.4 |
| 20260830095537 | 56 | 242 | 2.0 | 5.0 | 0.00 | 0.00 | 0.00 | 91 | 1012.5 |
| 20260830095039 | 56 | 218 | 3.0 | 5.0 | 0.00 | 0.00 | 0.00 | 91 | 1012.5 |
| 20260830094557 | 56 | 238 | 2.0 | 8.0 | 0.00 | 0.00 | 0.00 | 91 | 1012.5 |
| 20260830094036 | 56 | 242 | 3.0 | 8.0 | 0.00 | 0.00 | 0.00 | 91 | 1012.6 |
| 20260830093536 | 56 | 239 | 2.0 | 7.0 | 0.00 | 0.00 | 0.00 | 91 | 1012.5 |
| 20260830093102 | 57 | 232 | 3.0 | 7.0 | 0.00 | 0.00 | 0.00 | 91 | 1012.5 |
| 20260830092536 | 57 | 233 | 3.0 | 7.0 | 0.00 | 0.00 | 0.00 | 91 | 1012.6 |
| 20260830092036 | 57 | 257 | 3.0 | 7.0 | 0.00 | 0.00 | 0.00 | 91 | 1012.5 |
| 20260830091553 | 57 | 229 | 2.0 | 5.0 | 0.00 | 0.00 | 0.00 | 91 | 1012.6 |
| 20260830091038 | 57 | 238 | 2.0 | 5.0 | 0.00 | 0.00 | 0.00 | 91 | 1012.7 |
| 20260830090537 | 57 | 234 | 3.0 | 5.0 | 0.00 | 0.00 | 0.00 | 91 | 1012.5 |
| 20260830090050 | 57 | 238 | 3.0 | 5.0 | 0.00 | 0.00 | 0.00 | 90 | 1012.5 |
| 20260830085536 | 57 | 233 | 3.0 | 5.0 | 0.00 | 0.00 | 0.00 | 90 | 1012.5 |
| 20260830085036 | 57 | 232 | 3.0 | 7.0 | 0.00 | 0.00 | 0.00 | 90 | 1012.6 |
| 20260830084552 | 57 | 211 | 3.0 | 7.0 | 0.00 | 0.00 | 0.00 | 90 | 1012.7 |
| 20260830084037 | 57 | 256 | 3.0 | 5.0 | 0.00 | 0.00 | 0.00 | 90 | 1012.8 |
| 20260830083542 | 57 | 213 | 2.0 | 6.0 | 0.00 | 0.00 | 0.00 | 90 | 1012.8 |
| 20260830083101 | 57 | 227 | 3.0 | 7.0 | 0.00 | 0.00 | 0.00 | 90 | 1012.8 |
| 20260830082536 | 57 | 227 | 4.0 | 7.0 | 0.00 | 0.00 | 0.00 | 89 | 1012.8 |
| 20260830082036 | 57 | 236 | 2.0 | 5.0 | 0.00 | 0.00 | 0.00 | 89 | 1012.8 |
| 20260830081557 | 57 | 205 | 3.0 | 5.0 | 0.00 | 0.00 | 0.00 | 89 | 1012.9 |
| 20260830081037 | 57 | 236 | 2.0 | 5.0 | 0.00 | 0.00 | 0.00 | 89 | 1012.9 |
| 20260830080536 | 57 | 238 | 3.0 | 5.0 | 0.00 | 0.00 | 0.00 | 89 | 1012.9 |
| 20260830080054 | 57 | 207 | 2.0 | 6.0 | 0.00 | 0.00 | 0.00 | 88 | 1013.0 |
| 20260830075537 | 57 | 215 | 3.0 | 6.0 | 0.00 | 0.00 | 0.00 | 88 | 1013.0 |
| 20260830075039 | 57 | 235 | 3.0 | 6.0 | 0.00 | 0.00 | 0.00 | 88 | 1013.0 |
| 20260830074551 | 57 | 215 | 3.0 | 8.0 | 0.00 | 0.00 | 0.00 | 88 | 1013.0 |
| 20260830074037 | 57 | 242 | 3.0 | 8.0 | 0.00 | 0.00 | 0.00 | 88 | 1013.0 |
| 20260830073540 | 57 | 207 | 3.0 | 7.0 | 0.00 | 0.00 | 0.00 | 87 | 1013.0 |
| 20260830073053 | 57 | 229 | 4.0 | 8.0 | 0.00 | 0.00 | 0.00 | 87 | 1012.9 |
| 20260830072537 | 57 | 228 | 4.0 | 8.0 | 0.00 | 0.00 | 0.00 | 87 | 1013.0 |
| 20260830072037 | 57 | 223 | 4.0 | 7.0 | 0.00 | 0.00 | 0.00 | 87 | 1013.0 |
| 20260830071555 | 57 | 235 | 4.0 | 7.0 | 0.00 | 0.00 | 0.00 | 87 | 1013.0 |
| 20260830071037 | 57 | 221 | 3.0 | 7.0 | 0.00 | 0.00 | 0.00 | 87 | 1013.0 |
| 20260830070536 | 57 | 241 | 3.0 | 7.0 | 0.00 | 0.00 | 0.00 | 87 | 1013.0 |
| 20260830070052 | 57 | 215 | 3.0 | 7.0 | 0.00 | 0.00 | 0.00 | 87 | 1013.0 |
| 20260830065536 | 57 | 215 | 3.0 | 6.0 | 0.00 | 0.00 | 0.00 | 87 | 1013.0 |
| 20260830065033 | 57 | 225 | 3.0 | 7.0 | 0.00 | 0.00 | 0.00 | 87 | 1013.1 |
| 20260830064554 | 57 | 219 | 3.0 | 7.0 | 0.00 | 0.00 | 0.00 | 87 | 1013.1 |
| 20260830064037 | 57 | 202 | 3.0 | 7.0 | 0.00 | 0.00 | 0.00 | 88 | 1013.1 |
| 20260830063536 | 57 | 210 | 3.0 | 5.0 | 0.00 | 0.00 | 0.00 | 88 | 1013.2 |
| 20260830063109 | 57 | 242 | 3.0 | 7.0 | 0.00 | 0.00 | 0.00 | 88 | 1013.2 |
| 20260830062539 | 57 | 219 | 3.0 | 7.0 | 0.00 | 0.00 | 0.00 | 88 | 1013.3 |
| 20260830062040 | 57 | 225 | 2.0 | 6.0 | 0.00 | 0.00 | 0.00 | 88 | 1013.3 |
| 20260830061554 | 57 | 240 | 3.0 | 6.0 | 0.00 | 0.00 | 0.00 | 89 | 1013.2 |
| 20260830061038 | 57 | 210 | 3.0 | 5.0 | 0.00 | 0.00 | 0.00 | 89 | 1013.4 |
| 20260830060535 | 57 | 224 | 2.0 | 7.0 | 0.00 | 0.00 | 0.00 | 89 | 1013.4 |
| 20260830060052 | 57 | 210 | 3.0 | 7.0 | 0.00 | 0.00 | 0.00 | 89 | 1013.3 |
| 20260830055537 | 57 | 215 | 2.0 | 7.0 | 0.00 | 0.00 | 0.00 | 89 | 1013.4 |
| 20260830055037 | 57 | 223 | 3.0 | 7.0 | 0.00 | 0.00 | 0.00 | 90 | 1013.5 |
| 20260830054555 | 57 | 243 | 3.0 | 7.0 | 0.00 | 0.00 | 0.00 | 90 | 1013.4 |
| 20260830054036 | 58 | 219 | 4.0 | 7.0 | 0.00 | 0.00 | 0.00 | 90 | 1013.3 |
| 20260830053540 | 58 | 236 | 4.0 | 6.0 | 0.00 | 0.00 | 0.00 | 90 | 1013.3 |
| 20260830053053 | 58 | 212 | 3.0 | 7.0 | 0.00 | 0.00 | 0.00 | 90 | 1013.4 |
| 20260830052542 | 58 | 212 | 3.0 | 7.0 | 0.00 | 0.00 | 0.00 | 89 | 1013.4 |
| 20260830052038 | 58 | 198 | 3.0 | 7.0 | 0.00 | 0.00 | 0.00 | 89 | 1013.5 |
| 20260830051558 | 58 | 244 | 3.0 | 7.0 | 0.00 | 0.00 | 0.00 | 89 | 1013.5 |
| 20260830051039 | 58 | 221 | 3.0 | 7.0 | 0.00 | 0.00 | 0.00 | 89 | 1013.5 |
| 20260830050543 | 58 | 231 | 3.0 | 7.0 | 0.00 | 0.00 | 0.00 | 89 | 1013.6 |
| 20260830050056 | 58 | 226 | 3.0 | 8.0 | 0.00 | 0.00 | 0.00 | 89 | 1013.7 |
| 20260830045538 | 58 | 218 | 3.0 | 8.0 | 0.00 | 0.00 | 0.00 | 89 | 1013.7 |
| 20260830045038 | 58 | 230 | 3.0 | 7.0 | 0.00 | 0.00 | 0.00 | 89 | 1013.7 |
| 20260830044551 | 58 | 196 | 3.0 | 7.0 | 0.00 | 0.00 | 0.00 | 89 | 1013.7 |
| 20260830044041 | 58 | 205 | 3.0 | 7.0 | 0.00 | 0.00 | 0.00 | 89 | 1013.7 |
| 20260830043541 | 58 | 244 | 3.0 | 6.0 | 0.00 | 0.00 | 0.00 | 88 | 1013.6 |
| 20260830043048 | 58 | 236 | 3.0 | 7.0 | 0.00 | 0.00 | 0.00 | 88 | 1013.7 |
| 20260830042538 | 58 | 234 | 2.0 | 7.0 | 0.00 | 0.00 | 0.00 | 88 | 1013.7 |
| 20260830042041 | 58 | 215 | 2.0 | 7.0 | 0.00 | 0.00 | 0.00 | 88 | 1013.7 |
| 20260830041603 | 58 | 236 | 2.0 | 4.0 | 0.00 | 0.00 | 0.00 | 88 | 1013.6 |